Location: Casco Volunteer Fire Department
(44.5576°N, 87.6146°W)
Time: 06:21:22
(UTC+00:00)

Meteor 2-5 Rocket - Pass Details

Date: 22 January 2026
Orbit: 832 x 910 km, 81.2° (Epoch: 7 February)

Event Time Altitude Azimuth Distance (km) Brightness Sun altitude
Rises 12:16:50 0° 345° (NNW) 3,523 6.6 -11.1°
Reaches altitude 10° 12:19:20 10° 341° (NNW) 2,587 5.9 -10.7°
Maximum altitude 12:25:04 53° 266° (W) 1,101 4.0 -9.7°
Drops below altitude 10° 12:30:48 10° 191° (S) 2,588 6.3 -8.7°
Sets 12:33:18 0° 186° (S) 3,525 7.1 -8.3°
